Regional Weather Roundup
Issued by NWS Little Rock, AR

Home | Current Version | Previous Version | Text Only | Print | Product List | Glossary Off
Versions: 1 2 3 4 5 6 7 8 9 10 11 12 13 14 15 16 17 18 19 20 21 22 23 24 25 26 27 28 29 30 31 32 33 34 35 36 37 38 39 40 41 42 43 44 45 46 47 48 49 50

000
ASUS44 KLZK 251005
RWRLZK

WEATHER ROUNDUP FOR ARKANSAS
NATIONAL WEATHER SERVICE LITTLE ROCK AR
500 AM CDT SAT APR 25 2015

NOTE: "FAIR" INDICATES FEW OR NO CLOUDS BELOW 12,000 FEET WITH NO
SIGNIFICANT WEATHER AND/OR OBSTRUCTIONS TO VISIBILITY.

ARZ001-003-010-029-251100-
NORTHWEST ARKANSAS

CITY           SKY/WX    TMP DP  RH WIND       PRES   REMARKS
FAYETTEVILLE   CLEAR     60  58  92 S12       29.57S
FORT SMITH     FOG       58  56  93 E5        29.59S VSB 1/4
HARRISON       CLEAR     60  57  89 S9        29.56F
BENTONVILLE    CLEAR    N/A N/A N/A S12       29.54S
ROGERS         CLEAR     60  57  89 S15       29.55S
SILOAM SPGS    PTCLDY    59  54  82 S18       29.56S
HIGHFILL       CLEAR     60  56  86 S13       29.53F
$$

ARZ004-005-016-251100-
NORTH CENTRAL ARKANSAS

CITY           SKY/WX    TMP DP  RH WIND       PRES   REMARKS
BATESVILLE     CLOUDY    63  59  88 SW12G18   29.62R
FLIPPIN        CLEAR     61  57  88 S6        29.54F
MTN HOME       PTCLDY    59  57  93 S7        29.55F
$$

ARZ040-041-251100-
WEST CENTRAL ARKANSAS

CITY           SKY/WX    TMP DP  RH WIND       PRES   REMARKS
MENA           CLOUDY    63  61  94 W6        29.68S
MOUNT IDA      CLEAR     61  59  93 CALM      29.64S
$$

ARZ009-017-025-026-028-251100-
NORTHEAST ARKANSAS

CITY           SKY/WX    TMP DP  RH WIND       PRES   REMARKS
CORNING          N/A     57  57 100 SE6       29.63S FOG
JONESBORO      CLOUDY    59  59 100 S3        29.64S
NEWPORT        CLOUDY    62  62 100 S16       29.65R
WALNUT RIDGE   CLOUDY    57  54  88 SE8       29.62F
BLYTHEVILLE    CLOUDY    58  58 100 CALM      29.64R
$$

ARZ022-023-033-042-044-251100-
CENTRAL ARKANSAS

CITY           SKY/WX    TMP DP  RH WIND       PRES   REMARKS
LITTLE ROCK    CLOUDY    63  59  87 SW10      29.68R
N LITTLE ROCK    N/A     61  61 100 SW13G21   29.68R
JACKSONVILLE   CLOUDY    63  63 100 S6        29.67R
SEARCY         CLOUDY    62  60  93 SW7       29.68R
HOT SPRINGS    CLOUDY    62  61  96 SW5       29.69R
RUSSELLVILLE   PTCLDY    60  59  96 S5        29.62F
CLINTON        CLOUDY    59  59 100 CALM      29.64F FOG
$$

ARZ036-251100-
EAST ARKANSAS

CITY           SKY/WX    TMP DP  RH WIND       PRES   REMARKS
WEST MEMPHIS   CLOUDY    61  61 100 S12       29.66R
$$

ARZ050-053-066-070-073-251100-
SOUTHWEST ARKANSAS

CITY           SKY/WX    TMP DP  RH WIND       PRES   REMARKS
ARKADELPHIA    CLOUDY    62  62 100 S3        29.71R FOG
CAMDEN         CLOUDY    63  59  88 CALM      29.71F
TEXARKANA      CLOUDY    62  61  96 S8        29.69S
EL DORADO      CLOUDY    62  61  96 S6        29.71F
DE QUEEN       CLOUDY    63  62  97 SW5       29.67S
$$

ARZ056-057-069-251100-
SOUTHEAST ARKANSAS

CITY           SKY/WX    TMP DP  RH WIND       PRES   REMARKS
PINE BLUFF     CLOUDY    62  61  96 S10G20    29.71R
STUTTGART      CLOUDY    61  57  88 S12       29.70R
MONTICELLO     CLOUDY    64  63  96 S7        29.72S

$$




USA.gov is the U.S. government's official web portal to all federal, state and local government web resources and services.